[[{"header":{"parameterUnit":"m.s-1","parameterCategory":1,"la1":30.2991,"la2":30.254,"lo1":-89.0895,"lo2":-89.0444,"dy":0.0017,"dx":0.0017,"nx":28,"ny":28,"refTime":"2023-04-27T21:00:00:Z","depth":0,"parameterNumber":2,"parameterNumberName":"U-component_of_WINDS"},"data":[0,0,0,0,0,0,0,0,0,0,0,0,0,0,0,0,0,0,0,0,0,0,0,0,0,0,0,0,0,0,0,0,0,0,0,0,0,0,0,0,0,0,0,0,0,0,0,0,0,0,0,0,0,0,0,0,0,0,-4.677,-4.6773,0,-4.7073,-4.7076,-4.7079,-4.7139,-4.7137,-4.7134,-4.7132,-4.7444,-4.7454,-4.7464,0,0,0,0,0,0,0,0,0,0,0,0,0,-4.6245,-4.6255,-4.6769,-4.6773,-4.6777,-4.7072,-4.7076,-4.708,-4.7139,-4.7137,-4.7134,-4.7131,-4.744,-4.7453,-4.7465,0,0,0,0,0,0,0,0,0,0,0,0,0,-4.6503,-4.6258,-4.6769,-4.6842,-4.6852,-4.7071,-4.7076,-4.7081,-4.714,-4.7136,-4.7133,-4.713,-4.7436,-4.7451,-4.7467,-4.7635,0,0,-4.7515,-4.7522,0,0,0,0,0,0,0,0,-4.6488,-4.6522,-4.6827,-4.6837,-4.6848,-4.7064,-4.7006,-4.7267,-4.7141,-4.7031,-4.7132,-4.7128,-4.732,-4.7345,-4.741,-4.765,-4.7663,-4.7516,-4.7526,-4.7533,-4.7537,0,0,0,0,0,0,0,-4.647,-4.6509,-4.6889,-4.6832,-4.6845,-4.6861,-4.6893,-4.7055,-4.7192,-4.704,-4.7045,-4.708,-4.7325,-4.7395,-4.7418,-4.7668,-4.7516,-4.753,-4.754,-4.7546,-4.8063,-4.8067,0,0,0,0,0,0,-4.6439,-4.6494,-4.688,-4.6898,-4.6656,-4.6873,-4.691,-4.6999,-4.719,-4.7216,-4.7083,-4.7082,-4.737,-4.7399,-4.7429,-4.7639,-4.7533,-4.7547,-4.7556,-4.8059,-4.8064,-4.8068,0,0,0,0,0,0,-4.6428,-4.6473,-4.6867,-4.6698,-4.6749,-4.6886,-4.6985,-4.7006,-4.7076,-4.7222,-4.7247,-4.7128,-4.7368,-4.7407,-4.7584,-4.7651,-4.7555,-4.7569,-4.8054,-4.806,-4.8066,-4.8059,0,0,0,0,0,0,-4.6412,-4.6468,-4.6533,-4.6699,-4.6758,-4.7016,-4.6989,-4.7015,-4.7103,-4.7104,-4.7272,-4.7296,-4.7368,-4.756,-4.7599,-4.767,-4.7581,-4.8048,-4.8056,-4.8064,-4.8054,-4.8065,-4.8074,0,0,0,0,0,-4.6393,-4.6519,-4.6536,-4.6582,-4.6841,-4.702,-4.7054,-4.7134,-4.7108,-4.7174,-4.7269,-4.7291,-4.7637,-4.7578,-4.7623,-4.7699,-4.8044,-4.8054,-4.8063,-4.805,-4.8063,-4.8074,0,0,0,0,0,0,-4.6357,-4.6542,-4.6562,-4.6745,-4.6866,-4.7029,-4.7115,-4.7145,-4.7276,-4.7272,-4.7366,-4.7404,-4.7575,-4.7656,-4.7586,-4.7873,-4.7839,-4.7858,-4.7814,-4.7827,-4.7837,-4.7813,-4.7594,0,0,0,0,0,-4.637,-4.6499,-4.6654,-4.68,-4.686,-4.6977,-4.7058,-4.7109,-4.7239,-4.729,-4.7398,-4.7523,-4.7661,-4.7749,-4.7883,-4.8067,-4.8105,-4.8143,-4.8152,-4.816,-4.8174,-4.8279,-4.8297,-4.81,-4.81,-4.81,0,0,-4.6398,-4.6516,-4.6591,-4.6796,-4.6896,-4.7028,-4.702,-4.7159,-4.7258,-4.7312,-4.7485,-4.7569,-4.7715,-4.7896,-4.7982,-4.7968,-4.8238,-4.8172,-4.8177,-4.8188,-4.829,-4.8309,-4.8325,-4.8107,-4.8105,-4.8104,0,0,-4.6517,-4.6619,-4.6752,-4.6853,-4.7004,-4.7082,-4.7114,-4.7274,-4.7331,-4.7507,-4.755,-4.767,-4.7905,-4.8007,-4.809,-4.8251,-4.8276,-4.8293,-4.8343,-4.8443,-4.8459,-4.8473,-4.853,-4.8549,-4.8308,-4.8308,-4.8308,0,-4.6533,-4.6733,-4.6817,-4.6955,-4.7044,-4.71,-4.7236,-4.733,-4.7518,-4.7578,-4.7562,-4.7858,-4.7961,-4.8167,-4.8206,-4.8272,-4.8312,-4.8273,-4.845,-4.8465,-4.8479,-4.8535,-4.8556,-4.8308,-4.8308,-4.8308,-4.8308,0,-4.6745,-4.6883,-4.6973,-4.7153,-4.7253,-4.7389,-4.7495,-4.7587,-4.763,-4.771,-4.7889,-4.8015,-4.8176,-4.8229,-4.8273,-4.8443,-4.843,-4.8431,-4.8398,-4.8498,-4.8551,-4.8573,-4.831,-4.8309,-4.8309,-4.8309,0,0,-4.6846,-4.7072,-4.7104,-4.7186,-4.7359,-4.7468,-4.7608,-4.7766,-4.7842,-4.7971,-4.8091,-4.829,-4.8292,-4.8386,-4.8443,-4.8531,-4.8651,-4.8522,-4.8527,-4.854,-4.8845,-4.8842,-4.8865,-4.867,-4.8674,-4.8678,-4.8833,0,-4.6985,-4.7235,-4.7316,-4.7525,-4.7654,-4.771,-4.7832,-4.7952,-4.8031,-4.8153,-4.8242,-4.8381,-4.8373,-4.843,-4.8521,-4.8617,-4.8713,-4.8607,-4.8782,-4.8787,-4.8741,-4.8894,-4.8891,-4.903,-4.8854,-4.8858,-4.8861,0,-4.7179,-4.731,-4.7532,-4.7689,-4.7747,-4.7855,-4.8007,-4.8123,-4.8261,-4.8312,-4.8419,-4.8469,-4.8619,-4.858,-4.8788,-4.8714,-4.8792,-4.885,-4.8858,-4.8875,-4.8828,-4.8914,-4.9077,-4.9097,-4.8895,-4.8892,-4.8889,0,-4.7229,-4.7462,-4.7625,-4.7694,-4.7882,-4.7957,-4.8039,-4.8174,-4.8264,-4.8398,-4.8457,-4.8607,-4.8688,-4.8803,-4.8893,-4.8857,-4.9094,-4.9062,-4.9141,-4.9138,-4.9186,-4.9181,-4.9362,-4.9239,-4.9238,-4.9238,-4.9238,0,-4.7374,-4.7507,-4.765,-4.7749,-4.7901,-4.7994,-4.8142,-4.8228,-4.8347,-4.8466,-4.8525,-4.8635,-4.8748,-4.8873,-4.8945,-4.9107,-4.9144,-4.919,-4.9207,-4.9184,-4.9177,-4.9234,-4.9225,-4.9244,-4.9242,-4.9241,-4.924,0,-4.7454,-4.7555,-4.7736,-4.79,-4.7945,-4.8049,-4.819,-4.829,-4.8373,-4.8522,-4.8562,-4.8693,-4.8844,-4.8946,-4.9139,-4.9188,-4.9363,-4.9379,-4.9315,-4.9323,-4.9396,-4.9387,-4.9617,-4.9652,-4.9507,-4.9508,-4.9509,0,-4.7538,-4.7642,-4.7818,-4.7901,-4.7983,-4.8117,-4.8209,-4.8306,-4.8401,-4.8567,-4.8647,-4.8802,-4.893,-4.917,-4.9282,-4.9431,-4.945,-4.9521,-4.9473,-4.9446,-4.945,-4.9442,-4.9452,-4.9527,-4.9528,-4.9529,-4.953,0,-4.7678,-4.7723,-4.7854,-4.8003,-4.8111,-4.8234,-4.8356,-4.8421,-4.854,-4.8643,-4.8798,-4.8898,-4.9096,-4.9249,-4.9409,-4.9495,-4.9533,-4.9545,-4.9571,-4.9546,-4.9505,-4.9527,-4.9334,-4.9538,-4.9537,-4.9537,-4.9536,-4.9536,-4.7763,-4.7858,-4.7996,-4.814,-4.8243,-4.8356,-4.8458,-4.8554,-4.8685,-4.8853,-4.8903,-4.9064,-4.9202,-4.9421,-4.951,-4.9638,-4.9631,-4.9669,-4.9678,-4.9686,-4.9685,-4.9486,-4.9668,-4.9668,-4.9668,-4.9668,-4.9668,0,-4.7904,-4.7996,-4.8128,-4.8298,-4.8411,-4.8437,-4.8575,-4.8668,-4.8809,-4.8934,-4.906,-4.9239,-4.9389,-4.9514,-4.9669,-4.9747,-4.9769,-4.9785,-4.9779,-4.9798,-4.9683,-4.9644,-4.9765,-4.9765,-4.9765,-4.9765,-4.9765,-4.9765,-4.7991,-4.8153,-4.8215,-4.8429,-4.8522,-4.8679,-4.8755,-4.8861,-4.8961,-4.9158,-4.9282,-4.9363,-4.9489,-4.9654,-4.9793,-4.9826,-4.988,-4.9892,-4.9928,-4.9817,-4.9806,-4.9795,-4.976,-4.9903,-4.9903,-5.0033,-5.0035,-5.0035]},{"header":{"parameterUnit":"m.s-1","parameterCategory":1,"la1":30.2991,"la2":30.254,"lo1":-89.0895,"lo2":-89.0444,"dy":0.0017,"dx":0.0017,"nx":28,"ny":28,"refTime":"2023-04-27T21:00:00:Z","depth":0,"parameterNumber":3,"parameterNumberName":"V-component_of_WINDS"},"data":[0,0,0,0,0,0,0,0,0,0,0,0,0,0,0,0,0,0,0,0,0,0,0,0,0,0,0,0,0,0,0,0,0,0,0,0,0,0,0,0,0,0,0,0,0,0,0,0,0,0,0,0,0,0,0,0,0,0,5.3412,5.3413,0,5.3497,5.3498,5.3499,5.3529,5.3529,5.3529,5.3528,5.3607,5.3609,5.3611,0,0,0,0,0,0,0,0,0,0,0,0,0,5.3269,5.3271,5.3412,5.3413,5.3415,5.3497,5.3498,5.3499,5.3529,5.3529,5.3529,5.3528,5.3606,5.3609,5.3612,0,0,0,0,0,0,0,0,0,0,0,0,0,5.334,5.3272,5.3412,5.344,5.3443,5.3497,5.3498,5.3499,5.3529,5.3529,5.3528,5.3528,5.3605,5.3609,5.3612,5.3642,0,0,5.3623,5.3624,0,0,0,0,0,0,0,0,5.3336,5.3345,5.3435,5.3438,5.3442,5.3502,5.3476,5.3547,5.3529,5.3496,5.3528,5.3528,5.3572,5.3578,5.3595,5.3646,5.3649,5.3623,5.3625,5.3627,5.3628,0,0,0,0,0,0,0,5.3331,5.3341,5.3446,5.3436,5.344,5.3445,5.3455,5.349,5.3535,5.3499,5.3502,5.3512,5.3574,5.3591,5.3597,5.365,5.3623,5.3626,5.3628,5.363,5.3729,5.3729,0,0,0,0,0,0,5.3322,5.3337,5.3443,5.3448,5.3387,5.3448,5.3459,5.3483,5.3535,5.3542,5.3512,5.3513,5.3585,5.3592,5.3599,5.3638,5.3627,5.363,5.3632,5.3728,5.3729,5.373,0,0,0,0,0,0,5.3319,5.3331,5.3439,5.3393,5.3408,5.3451,5.3478,5.3485,5.3503,5.3545,5.3552,5.3522,5.3585,5.3595,5.3632,5.3641,5.3632,5.3635,5.3728,5.3729,5.3729,5.3715,0,0,0,0,0,0,5.3315,5.333,5.3344,5.3394,5.341,5.3473,5.3479,5.3487,5.351,5.3511,5.3556,5.3563,5.3586,5.3626,5.3635,5.3646,5.3638,5.3727,5.3728,5.3729,5.3715,5.3715,5.3716,0,0,0,0,0,5.331,5.3335,5.3345,5.3357,5.3429,5.3473,5.3482,5.351,5.351,5.3523,5.355,5.3561,5.3638,5.363,5.364,5.3652,5.3727,5.3728,5.3729,5.3715,5.3715,5.3716,0,0,0,0,0,0,5.3283,5.3342,5.3353,5.3396,5.343,5.3478,5.3496,5.351,5.3542,5.3542,5.3573,5.3583,5.3617,5.3638,5.3627,5.3683,5.3683,5.3686,5.3669,5.3669,5.367,5.3664,5.364,0,0,0,0,0,5.3282,5.3316,5.3365,5.3398,5.3414,5.3452,5.3472,5.3491,5.3526,5.354,5.3569,5.36,5.3632,5.3651,5.3682,5.3718,5.3727,5.3731,5.3731,5.3731,5.3733,5.3753,5.3755,5.3733,5.3733,5.3733,0,0,5.328,5.3317,5.3336,5.3393,5.3422,5.3454,5.3464,5.3497,5.3521,5.3544,5.3582,5.3604,5.3641,5.3677,5.3694,5.3695,5.3741,5.3732,5.3732,5.3735,5.3754,5.3756,5.3758,5.3734,5.3734,5.3734,0,0,5.3295,5.3326,5.3357,5.3386,5.3429,5.3454,5.3461,5.3508,5.3525,5.3564,5.3582,5.3608,5.3661,5.3687,5.3707,5.3729,5.3741,5.3738,5.374,5.3758,5.376,5.3762,5.377,5.3772,5.374,5.374,5.374,0,5.3286,5.3339,5.337,5.3404,5.3428,5.3453,5.3483,5.3508,5.3558,5.3572,5.3573,5.3641,5.3667,5.3709,5.3715,5.373,5.3738,5.3734,5.3758,5.376,5.3762,5.3769,5.3772,5.374,5.374,5.374,5.374,0,5.3326,5.3362,5.3381,5.3432,5.3458,5.3489,5.3523,5.3544,5.356,5.3584,5.3622,5.3655,5.3693,5.3704,5.3719,5.3748,5.3747,5.3752,5.3753,5.3763,5.377,5.3774,5.3739,5.3739,5.3739,5.3739,0,0,5.3327,5.3395,5.3402,5.3425,5.3475,5.3501,5.3532,5.3572,5.359,5.3622,5.3648,5.3693,5.3698,5.372,5.3738,5.3754,5.3769,5.3757,5.3759,5.3759,5.3802,5.3799,5.3802,5.3777,5.3778,5.3778,5.3799,0,5.3347,5.3408,5.3437,5.3484,5.3516,5.3539,5.3566,5.3598,5.362,5.3649,5.3672,5.3704,5.3708,5.3722,5.3739,5.3764,5.3779,5.3763,5.3799,5.38,5.379,5.3806,5.3802,5.382,5.3803,5.3803,5.3804,0,5.338,5.3416,5.3467,5.3513,5.3527,5.3551,5.359,5.3617,5.3652,5.3667,5.3692,5.371,5.374,5.3738,5.378,5.3769,5.3785,5.3799,5.3801,5.3805,5.3803,5.3811,5.3827,5.383,5.3809,5.3808,5.3808,0,5.3376,5.3436,5.3475,5.3494,5.3548,5.3564,5.3586,5.3622,5.3643,5.3676,5.369,5.3724,5.3742,5.3767,5.3792,5.3789,5.3831,5.3832,5.3843,5.3842,5.3852,5.3851,5.3871,5.3861,5.3861,5.3861,5.3861,0,5.3396,5.3426,5.3474,5.3497,5.3531,5.3562,5.3593,5.3617,5.3648,5.3674,5.3695,5.3719,5.375,5.3777,5.3796,5.3828,5.3836,5.3847,5.3852,5.3846,5.3844,5.3857,5.3857,5.3862,5.3862,5.3862,5.3862,0,5.3397,5.3431,5.3474,5.3522,5.3534,5.3557,5.3596,5.3618,5.3642,5.3675,5.3684,5.372,5.3753,5.378,5.3822,5.3835,5.3867,5.3873,5.3857,5.3859,5.3869,5.3868,5.3898,5.3904,5.389,5.389,5.389,0,5.3409,5.3433,5.3484,5.3505,5.3528,5.3561,5.3584,5.3614,5.3636,5.3678,5.3695,5.3729,5.3759,5.3809,5.3837,5.3869,5.3876,5.3884,5.388,5.3873,5.3876,5.3874,5.3876,5.3884,5.3884,5.3884,5.3884,0,5.3426,5.3441,5.3475,5.3514,5.3542,5.3573,5.3605,5.362,5.3656,5.3679,5.3714,5.3737,5.3781,5.3815,5.385,5.387,5.3882,5.3885,5.389,5.3884,5.3873,5.3879,5.3857,5.3884,5.3884,5.3884,5.3884,5.3884,5.3433,5.3455,5.3495,5.3531,5.3559,5.3588,5.3612,5.3639,5.3669,5.371,5.3724,5.376,5.3792,5.3841,5.3861,5.3887,5.3889,5.3895,5.3897,5.3898,5.3897,5.3869,5.3894,5.3894,5.3894,5.3894,5.3894,0,5.3451,5.3478,5.3511,5.3556,5.3584,5.3596,5.3632,5.3654,5.3686,5.3716,5.3746,5.3785,5.3817,5.3847,5.3881,5.3896,5.3902,5.3903,5.3903,5.3907,5.3894,5.3887,5.3898,5.3898,5.3898,5.3898,5.3898,5.3898,5.3464,5.3503,5.3522,5.3573,5.3599,5.3636,5.3656,5.3681,5.3706,5.375,5.3778,5.3799,5.3829,5.3864,5.3893,5.3901,5.3912,5.3912,5.3921,5.3908,5.3908,5.3907,5.3901,5.3914,5.3914,5.3932,5.3932,5.3932]}]]